Other Public Products
Issued by NWS Grand Forks, ND

Home | Current Version | Previous Version | Graphics & Text | Print | Product List | Glossary On
Versions: 1 2 3 4 5 6 7 8 9 10 11 12 13 14 15 16 17 18 19 20 21 22 23 24 25 26 27 28 29 30 31 32 33 34 35 36 37 38 39 40 41 42 43 44 45 46 47 48 49 50
000
FPUS83 KFGF 210531
OPUFGF
PRAIRIE TO PINES WEATHER ROUNDUP
NATIONAL WEATHER SERVICE EASTERN NORTH DAKOTA/GRAND FORKS ND
1100 PM CST FRI JAN 20 2017

 **SATELLITE DATA USED TO AUGMENT SKY COVER AT AUTOMATED STATIONS**
 *****  WEATHER ACROSS EASTERN NORTH DAKOTA  *****

CITY           SKY/WX    TMP DP  RH WIND       PRES   REMARKS
GRAND FORKS    CLOUDY    36  33  89 SE12      29.43F
GRAND FORKS AF CLOUDY    34  34  99 SE9       29.42F
GRAND CITY NWS NOT AVBL
BUXTON           N/A     34  34  99 SE10        N/A
DEVILS LAKE    MIX PCPN  33  32  96 SE12      29.38S VSB 1/2 WCI  24
FARGO          CLOUDY    39  35  86 SE10      29.42S
WAHPETON ARPT  CLOUDY    34  32  93 SE10      29.43S
$$

 *****  WEATHER ACROSS CENTRAL AND WESTERN NORTH DAKOTA  *****

CITY           SKY/WX    TMP DP  RH WIND       PRES   REMARKS
JAMESTOWN      FOG       33  33 100 SE10      29.35R VSB 1/4 WCI  25
BISMARCK       CLOUDY    32  30  92 W5        29.34R FOG
MINOT          CLOUDY    29  28  96 E3        29.32F FOG
MINOT AFB      CLOUDY    27  25  93 CALM      29.33R FOG
GARRISON         N/A     24  23  96 W7        29.32S WCI  16
WILLISTON      FAIR      25  24  96 SW5       29.31F WCI  19
DICKINSON      FAIR      23  20  88 W12       29.28F WCI  12
HETTINGER      FAIR      26  23  88 NW12      29.31S WCI  16
$$

 *****  OTHER OBSERVATIONS NORTHEAST NORTH DAKOTA  *****

CITY           SKY/WX    TMP DP  RH WIND       PRES   REMARKS
WALHALLA       NOT AVBL
LANGDON        NOT AVBL
CAVALIER         N/A     34  34 100 SE6       29.43S FOG
GRAFTON        CLOUDY    34  34 100 SE10      29.45S FOG
CANDO          NOT AVBL
FORT TOTTEN      N/A     33  33 100 SE7       29.95S
ROLLA            N/A    N/A N/A N/A MISG        N/A
RUGBY            N/A     32  32 100 SE9       29.35S FOG     WCI  24
 ***** THE ABOVE OBSERVATIONS ARE NON NWS ARE NOT QUALITY
        CONTROLLED AND MAY MIS-REPORT RAIN FOR SNOW...
$$

 *****  OTHER OBSERVATIONS SOUTHEAST NORTH DAKOTA *****

CITY           SKY/WX    TMP DP  RH WIND       PRES   REMARKS
COOPERSTOWN    MIX PCPN  34  34 100 SE13      29.39R VSB<1/4 WCI  25
VALLEY CITY    FOG       32  32 100 SE9       29.40R VSB 3/4 WCI  24
OAKES          NOT AVBL
GWINNER        CLOUDY    34  34 100 SE6       29.38S VSB 1/2
SHEYENNE NWR     N/A     35  35 100 SE7       29.95S
BUFFALO          N/A     33  32  96 NE12        N/A  WCI  24
WYNDMERE         N/A     34  34 100 SE10        N/A
 ***** THE ABOVE OBSERVATIONS ARE NON NWS ARE NOT QUALITY
       CONTROLLED AND MAY MIS-REPORT RAIN FOR SNOW...
$$

  *****  WEATHER ACROSS NORTHERN MINNESOTA  *****

CITY           SKY/WX    TMP DP  RH WIND       PRES   REMARKS
FLAG ISLAND    LGT SNOW  32  32 100 SE6       29.50F
WARROAD        CLOUDY    36  30  80 SE8       29.49F FOG
ROSEAU         CLOUDY    36  30  80 SE6       29.48F
HALLOCK        DRIZZLE   36  34  93 SE9       29.44S
THF RVR FALLS  CLOUDY    34  33  96 SE16      29.46F WCI  24
HALSTAD          N/A     34  32  92 SE9         N/A
FOSSTON        CLOUDY    34  32  93 SE10G16   29.47S
BAUDETTE       CLOUDY    34  33  96 SE9       29.51S
WASKISH        CLOUDY    36  34  93 SE7       29.51S
CROOKSTON      CLOUDY    36  34  93 SE10      29.46R
$$
  *****  WEATHER ACROSS CENTRAL AND WEST MINNESOTA  *****

CITY           SKY/WX    TMP DP  RH WIND       PRES   REMARKS
BEMIDJI        CLOUDY    33  33 100 SE10      29.50R FOG     WCI  25
PARK RAPIDS    CLOUDY    34  32  92 SE10      29.48S FOG
WADENA         CLOUDY    34  34 100 SE8       29.48S FOG
DETROIT LAKES  DRIZZLE   34  34 100 SE13      29.46S WCI  25
MOORHEAD       CLOUDY    36  34  93 SE10      29.44S
FERGUS FALLS   CLOUDY    36  36 100 SE13      29.48S
ELBOW LAKE     CLOUDY    34  34 100 SE13      29.45S FOG     WCI  25
MORRIS MN      CLOUDY    34  34 100 SE12      29.44S FOG
STAPLES        CLOUDY    34  34 100 SE5       29.50S FOG
WHEATON        CLOUDY    43  43 100 SE15      29.44S FOG
$$
  *****  WEATHER ELSEWHERE ACROSS MINNESOTA  *****

CITY           SKY/WX    TMP DP  RH WIND       PRES   REMARKS
DULUTH         DRZL/FOG  34  34 100 SE10      29.57R VSB 1/8
INTRNTL FALLS  LGT SNOW  33  31  92 SE7       29.54S FOG
ELY            LGT SNOW  32  32 100 E3        29.57S
CLOQUET        FOG       34  34 100 E3        29.56S VSB 1/2
BRAINERD       CLOUDY    34  33  96 SE7       29.53S FOG
HIBBING        CLOUDY    32  32 100 SE8       29.54F WCI  25
ALEXANDRIA     CLOUDY    34  33  96 SE10      29.47F FOG
SAINT CLOUD    FOG       34  34 100 SE6       29.52F VSB 3/4
MINNEAPOLIS    CLOUDY    35  34  96 E8        29.54F FOG
$$

  *****  WEATHER ACROSS SOUTH DAKOTA  *****

CITY           SKY/WX    TMP DP  RH WIND       PRES   REMARKS
SIOUX FALLS    LGT RAIN  38  38 100 SE8       29.41F VSB 1/2
BROOKINGS      FOG       36  35  96 SE15      29.40S VSB 1/2
WATERTOWN      FOG       34  34 100 S13       29.37S VSB 1/4 WCI  25
HURON          CLOUDY    38  38 100 S13       29.35S FOG
SISSETON         N/A     34  34 100 S13       29.39F WCI  25
ABERDEEN       CLOUDY    32  27  81 CALM      29.36S
MITCHELL       CLOUDY    39  39 100 S10       29.38S FOG
PIERRE         CLOUDY    24  22  91 SW7       29.33S FOG     WCI  16
MOBRIDGE       FOG       23  20  88 SE13      29.30R VSB 1/2 WCI  11
RAPID CITY     CLOUDY    36  31  82 NW9       29.35S
$$

  *****  SOME WEATHER IN NEARBY STATES *****

CITY           SKY/WX    TMP DP  RH WIND       PRES   REMARKS
GLASGOW MT     FAIR      29  27  92 W9        29.34S WCI  20
GREAT FALLS MT FAIR      26  17  68 S9        29.31F WCI  17
CHEYENNE WY    FAIR      29  16  58 W12       29.41F WCI  19
SCOTTSBLUFF NE FAIR      32  29  88 W6        29.41R
OMAHA NE       CLOUDY    41  38  89 SE6       29.41F FOG
DES MOINES IA  LGT RAIN  42  41  96 E5        29.44F VSB 1/2
DAVENPORT IA   FOG       41  41 100 E8        29.56S VSB 1/4
CHICAGO IL     DRIZZLE   42  42 100 SE3       29.62F FOG
EAU CLAIRE WI  LGT RAIN  34  34 100 E7        29.58F FOG
LA CROSSE WI   CLOUDY    39  36  89 E6        29.58F
$$

  *****  SOME NATIONAL WEATHER *****

CITY           SKY/WX    TMP DP  RH WIND       PRES   REMARKS
LA GUARDIA NY  CLOUDY    42  40  92 CALM      29.92S FOG
RALEIGH NC     FOG       53  52  96 CALM      29.92F VSB 1/8
ATLANTA GA     MOCLDY    60  59  96 S5        29.87F
NEW ORLEANS LA CLOUDY    71  70  96 S8        29.77S FOG
OKLAHOMA CITY  FAIR      51  32  48 SW9       29.55S
ALBUQUERQUE NM LGT RAIN  37  35  92 E7        29.61F
SALT LAKE CITY CLOUDY    34  31  88 S14       29.32F WCI  25
LOS ANGELES CA MOCLDY    55  46  71 W26G36    29.55R
BOISE ID       CLOUDY    37  29  72 SE12      29.27S
SEATTLE WA     CLOUDY    44  40  85 S3        29.18R
$$

*** WEATHER ACROSS MANITOBA...SASKATCHEWAN AND ONTARIO ***
                ***ONTARIO***

CITY           SKY/WX    TMP DP  RH WIND       PRES   REMARKS
GERALDTON      FOG       32  32 100 SE3       29.65R VSB 0
THUNDER BAY    LGT RAIN  34  34 100 E5        29.66S FOG
SIOUX LOOKOUT  LGT RAIN  34  34 100 E3        29.59S
TORONTO        DRZL/FOG  37  36  93 VRB2      29.76R VSB 1/4
BIG TROUT LK   FLURRIES  25  25 100 SE7       29.71R WCI  17
PICKLE LAKE    NOT AVBL
DRYDEN         LGT RAIN  36  36 100 SE9       29.55F
KENORA         DRIZZLE   36  34  93 S9        29.52S FOG
$$
                *** MANITOBA***

CITY           SKY/WX    TMP DP  RH WIND       PRES   REMARKS
BRANDON        FOG       32  32 100 SE8       29.38S VSB 1   WCI  25
DAUPHIN        LGT SNOW  27  23  86 VRB2      29.41S
ISLAND LAKE    FRZ DRZL  32  32 100 VRB2      29.58S FOG
PILOT MOUND      N/A     32  32 100 SE13        N/A  WCI  22
THE PAS        CLOUDY    27  25  93 E6        29.42S FOG     WCI  20
THOMPSON       CLOUDY    27  25  93 E5        29.56R FOG     WCI  21
WINNIPEG       LGT RAIN  34  34 100 SE8       29.46S
LYNN LAKE      FLURRIES  27  27 100 SE8       29.49R WCI  18
CHURCHILL      FLURRIES  19  18  93 E16G24    29.81S WCI   5
GILLAM         FLURRIES  27  27 100 E5        29.65S WCI  21
$$
                ***SASKATCHEWAN***

CITY           SKY/WX    TMP DP  RH WIND       PRES   REMARKS
ESTEVAN        FOG       12  10  92 E9        29.31S VSB 1/4 WCI   0
KINDERSLEY     PTCLDY    27  25  93 N10       29.31F WCI  17
LLOYDMINSTER   CLOUDY    28  28 100 N7        29.37R WCI  21
PRINCE ALBERT  CLOUDY    28  27  93 E3        29.34R
REGINA         MOCLDY    25  23  93 E6        29.29S WCI  18
YORKTON        CLOUDY    21  21 100 SE10      29.34R FC1F1C2F2C3F3C4F4C5F5C6F6C7F7C8F8C9F9CaFaCbFbCcFcCdFdCe!


USA.gov is the U.S. government's official web portal to all federal, state and local government web resources and services.